Flag for Germany Weather past 2 weeks in Biberach an der Riss, Baden-Württemberg, Germany

Now
43 °F

Passing clouds.


Feels Like: 35 °F
Forecast: 40 / 46 °F
Wind: 15 mph from West

Location: Laupheim Airport

Current Time: Oct 22, 2014 at 2:44:21 AM

Latest Report: Oct 22, 2014 at 1:20 AM


Visibility: N/A

Pressure: 29.98 "Hg

Humidity: 76%

Dew point: 36 °F

Location of Biberach an der RissLocation

Historic Weather in Biberach an der Riss — Graph

°F

Biberach an der Riss temperature yesterday

Maximum temperature yesterday: 63 °F (at 3:20 PM)
Minimum temperature yesterday: 45 °F (at 9:20 PM)
Average temperature yesterday: 56 °F

Past Weeks' High & Low Weather Summary

 TemperatureHumidityPressure
High77 °F (Oct 9, 2:20 PM)100% (Oct 7, 1:20 AM)30.24 "Hg (Oct 7, 1:20 AM)
Low43 °F (Oct 18, 5:20 AM)34% (Oct 9, 3:20 PM)29.68 "Hg (Oct 21, 7:20 PM)
Average57 °F88%29.95 "Hg
* Reported Oct 7 1:20 AM — Oct 22 1:20 AM, Biberach an der Riss, Weather by CustomWeather, © 2014

Note: Actual official high and low records may vary slightly from our data, if they occured in-between our weather recording intervals... More about our weather records

Advertising

Biberach an der Riss weather history for previous 24 hours

 ConditionsComfort  
Time TempWeatherWind HumidityBarometerVisibility
1:20 AM
Oct 22
43 °FPassing clouds.15 mph76%29.98 "HgN/A
12:20 AM45 °FSprinkles. Passing clouds.22 mph81%29.98 "HgN/A
11:20 PM
Oct 21
45 °FSprinkles. Partly cloudy.16 mph81%29.95 "HgN/A
10:20 PM46 °FPartly cloudy.16 mph82%29.86 "HgN/A
9:20 PM45 °FPartly cloudy.16 mph81%29.77 "HgN/A
8:20 PM50 °FStrong thunderstorms. Passing clouds.35 mph82%29.74 "Hg2 mi
7:20 PM57 °FPartly sunny.16 mph72%29.68 "HgN/A
6:20 PM59 °FPartly sunny.17 mph63%29.71 "HgN/A
5:20 PM61 °FBroken clouds.24 mph55%29.77 "HgN/A
4:56 PM61 °FBroken clouds.29 mph55%29.77 "HgN/A
4:20 PM63 °FBroken clouds.22 mph59%29.77 "HgN/A
3:20 PM63 °FPartly sunny.12 mph64%29.80 "HgN/A
2:20 PM61 °FBroken clouds.15 mph68%29.86 "HgN/A
1:20 PM61 °FBroken clouds.20 mph68%29.89 "HgN/A
12:20 PM61 °FPartly sunny.14 mph77%29.89 "HgN/A
11:20 AM59 °FPartly sunny.14 mph88%29.92 "HgN/A
10:20 AM57 °FPartly sunny.10 mph94%29.95 "HgN/A
9:20 AM55 °FPartly sunny.1 mph94%29.95 "Hg4 mi
8:20 AM54 °FLight rain. Fog.1 mph100%29.95 "Hg3 mi
7:20 AM54 °FPassing clouds.1 mph100%29.95 "HgN/A
6:20 AM54 °FPassing clouds.2 mph100%29.98 "Hg6 mi
5:20 AM54 °FPassing clouds.No wind100%29.98 "Hg5 mi
4:20 AM55 °FPassing clouds.2 mph94%30.01 "Hg5 mi
3:20 AM55 °FOvercast.3 mph100%30.01 "Hg6 mi
2:20 AM57 °FPassing clouds.1 mph100%30.01 "Hg6 mi
Weather by CustomWeather, © 2014

See weather overviewHow to use our weather pages